(364) Isara
ephemeris date magn radius delta ra dec elong phase
Opposition28 May 202613.12.546 AU1.537 AU16h28m-15°31'173.8°2.5°
Today28 Jul 202614.42.518 AU1.915 AU15h52m-16°51'114.9°21.4°
(364) Isara - 2026-07-28
astro.vanbuitenen.nl


 
-1 year
-1 month
-1 day
Now
+1 day
+1 month
+1 year

The interactive orbit chart above shows the body's path through the solar system and its position at the given date. Green and blue lines are shown perpendicular to the ecliptic plane: Green if the path is above the ecliptic plane, blue if it is below. (Left-click and drag to rotate the view; Right-click and drag to move the view; Use scroll wheel to zoom in our out.)

The orbital elements of Isara are:

            e (Eccentricity)                : 0.1490474
            a (Semimajor axis)              : 2.2205576
            i (Inclination)                 : 6.00614
            Ω (Longitude of ascending node) : 105.50233
            ω (Argument of perihelion)      : 312.98737
            M (Mean anomaly)                : 195.10732
            Epoch                           : 2026 Jun 09

            L (Longitude of perihelion)     : 58.64703
            B (Latitude of perihelion)      : -4.38977
            P (Orbital period in years)     : 3.31            
        

The light curve chart below shows the estimated development of the minor planet's magnitude.


The all-sky chart below shows the path of the minor planet over the same period as the light curve. The current position is marked yellow.





The following chart shows the path of the minor planet in the next few days. The field of view is optimized for (~10x50) binoculars and finderscopes.




Ephemerides:
Date       Time       RA (2000)    DEC (2000)    delta   radius  elong  phase   PA    magn
2026-07-28 00:00 UT   15 52 30.2   -16 51 36     1.915    2.518  114.9   21.4   104   14.4 
2026-07-28 03:15 UT   15 52 31.9   -16 52 05     1.917    2.518  114.8   21.5   104   14.4 
2026-07-29 00:00 UT   15 52 43.5   -16 55 15     1.927    2.517  114.1   21.6   104   14.4 
2026-07-30 00:00 UT   15 52 58.3   -16 58 57     1.938    2.517  113.2   21.8   103   14.4 
2026-07-31 00:00 UT   15 53 14.7   -17 02 42     1.949    2.516  112.3   21.9   103   14.4 
2026-08-01 00:00 UT   15 53 32.7   -17 06 31     1.960    2.515  111.4   22.1   103   14.4 
2026-08-02 00:00 UT   15 53 52.3   -17 10 23     1.972    2.515  110.6   22.2   103   14.4 
2026-08-03 00:00 UT   15 54 13.5   -17 14 19     1.983    2.514  109.7   22.3   103   14.5 
2026-08-04 00:00 UT   15 54 36.1   -17 18 17     1.995    2.513  108.9   22.5   103   14.5 
2026-08-05 00:00 UT   15 55 00.3   -17 22 18     2.006    2.513  108.0   22.6   103   14.5 
2026-08-06 00:00 UT   15 55 26.1   -17 26 22     2.018    2.512  107.2   22.7   103   14.5 
2026-08-07 00:00 UT   15 55 53.3   -17 30 29     2.030    2.511  106.3   22.8   103   14.5 
2026-08-08 00:00 UT   15 56 22.0   -17 34 38     2.041    2.510  105.5   22.9   103   14.5 
2026-08-09 00:00 UT   15 56 52.1   -17 38 51     2.053    2.510  104.7   23.0   102   14.6 
2026-08-10 00:00 UT   15 57 23.7   -17 43 05     2.065    2.509  103.9   23.1   102   14.6 
2026-08-11 00:00 UT   15 57 56.8   -17 47 22     2.077    2.508  103.0   23.2   102   14.6 
2026-08-12 00:00 UT   15 58 31.3   -17 51 41     2.089    2.507  102.2   23.3   102   14.6 
2026-08-13 00:00 UT   15 59 07.2   -17 56 02     2.101    2.507  101.4   23.3   102   14.6 
2026-08-14 00:00 UT   15 59 44.5   -18 00 26     2.113    2.506  100.6   23.4   102   14.6 
2026-08-15 00:00 UT   16 00 23.2   -18 04 51     2.125    2.505   99.8   23.5   102   14.6 
2026-08-16 00:00 UT   16 01 03.3   -18 09 18     2.137    2.504   99.0   23.5   102   14.7 
2026-08-17 00:00 UT   16 01 44.7   -18 13 47     2.149    2.504   98.3   23.6   102   14.7 
2026-08-18 00:00 UT   16 02 27.5   -18 18 17     2.161    2.503   97.5   23.6   102   14.7 
2026-08-19 00:00 UT   16 03 11.5   -18 22 49     2.173    2.502   96.7   23.7   101   14.7 
2026-08-20 00:00 UT   16 03 56.9   -18 27 22     2.185    2.501   95.9   23.7   101   14.7 
2026-08-21 00:00 UT   16 04 43.5   -18 31 57     2.197    2.500   95.2   23.8   101   14.7 
2026-08-22 00:00 UT   16 05 31.4   -18 36 32     2.209    2.500   94.4   23.8   101   14.7 
2026-08-23 00:00 UT   16 06 20.5   -18 41 09     2.221    2.499   93.6   23.8   101   14.7 
2026-08-24 00:00 UT   16 07 10.9   -18 45 46     2.234    2.498   92.9   23.8   101   14.8 
2026-08-25 00:00 UT   16 08 02.5   -18 50 25     2.246    2.497   92.1   23.9   101   14.8 
2026-08-26 00:00 UT   16 08 55.2   -18 55 04     2.258    2.496   91.4   23.9   101   14.8 
2026-08-27 00:00 UT   16 09 49.2   -18 59 43     2.270    2.495   90.7   23.9   101   14.8 


    Terminology:
            
    delta:  distance between minor planet and earth in AU
    radius: distance between minor planet and sun in AU
    magn:   magnitude (brightness) estimate    
    ra:     right ascension in hours (24h = 360deg)
    dec:    declination in degrees
    elong:  elongation in degrees (angle sun-earth-minor planet)    
    phase:  phase angle in degrees (angle sun-minor planet-earth)        
    AU:     Astronomical Unit (mean distance between earth and sun: 149597870.7 km
    

Orbital elements provided by the MPC (Minor Planet Center).
Calculations by a modified version of AAPlus, a C# implementation of the AA+ project by PJ Naughter from the algorithms presented in the book "Astronomical Algorithms" by Jean Meeus.
NGC2000 dso catalog and star labels from VizieR as provided by the Strasbourg astronomical Data Center.
Tycho2 catalog from the ESO archive.